Regional Weather Roundup
Issued by NWS

Home | Current Version | Previous Version | Text Only | Print | Product List | Glossary Off
Versions: 1 2 3 4 5 6 7 8 9 10 11 12 13 14 15 16 17 18 19 20 21 22 23 24 25 26 27 28 29 30 31 32 33 34 35 36 37 38 39 40 41 42 43 44 45 46 47 48 49 50

533
ASUS45 KPSR 291610
RWRAZ

ARIZONA HOURLY REGIONAL WEATHER ROUNDUP
NATIONAL WEATHER SERVICE PHOENIX AZ
900 AM MST WED MAR 29 2017

NOTE: FAIR INDICATES FEW OR NO CLOUDS BELOW 12,000 FEET WITH NO
SIGNIFICANT WEATHER AND/OR OBSTRUCTIONS TO VISIBILITY.

AZZ001>003-036-291700-
NORTHWEST ARIZONA

CITY           SKY/WX    TMP DP  RH WIND       PRES   REMARKS
BULLHEAD CITY  SUNNY     68  27  21 N21G28    30.10S
KINGMAN        SUNNY     55  10  16 N8        30.16R
$$

AZZ004>008-015-016-018-291700-
NORTH CENTRAL ARIZONA

CITY           SKY/WX    TMP DP  RH WIND       PRES   REMARKS
GRAND CANYON   SUNNY     47  21  35 NE9       30.19R
WILLIAMS       SUNNY     46  23  39 NE16G24   30.16S
PRESCOTT       SUNNY     51  26  37 NW9       30.14R
FLAGSTAFF      SUNNY     46  21  37 E18G28    30.14R
PAYSON         SUNNY     54  25  32 NE13G22   30.13R
PAGE           SUNNY     52  22  30 CALM      30.16R
$$

AZZ009>014-017-291700-
NORTHEAST ARIZONA

CITY           SKY/WX    TMP DP  RH WIND       PRES   REMARKS
WINSLOW        SUNNY     52  26  36 NW17      30.14R
SAINT JOHNS    SUNNY     45  31  58 NW14      30.08R
WINDOW ROCK    SUNNY     47  29  49 N12       30.06R
SHOW LOW       SUNNY     41  25  52 N14G22    30.13S
$$

AZZ023-291700-
GREATER PHOENIX AREA

CITY           SKY/WX    TMP DP  RH WIND       PRES   REMARKS
PHOENIX        MOSUNNY   66  29  24 VRB5      30.00R
BUCKEYE        SUNNY     66  27  22 N8        30.03R
GLENDALE       SUNNY     66  32  28 CALM      30.03R
LUKE AFB       SUNNY     68  32  26 N7        30.00R
DEER VALLEY    SUNNY     71  27  19 N10G22    29.99S
SCOTTSDALE     SUNNY     67  33  28 SW5       30.01R
MESA-FALCON    SUNNY    N/A N/A N/A N7        29.98R
MESA-GATEWAY   SUNNY     63  30  29 NE3       30.02R
CHANDLER       SUNNY     64  30  27 N8        30.01R
$$

AZZ027-028-291700-
SOUTHWEST MARICOPA COUNTY AND PINAL COUNTY

CITY           SKY/WX    TMP DP  RH WIND       PRES   REMARKS
CASA GRANDE    NOT AVBL
GILA BEND      SUNNY     65  22  19 CALM      30.02R
$$

AZZ503-504-507>509-291700-
SOUTHEAST ARIZONA

CITY           SKY/WX    TMP DP  RH WIND       PRES   REMARKS
TUCSON         SUNNY     60  27  28 CALM      30.04R
DAVIS-MONTHAN  SUNNY     60  25  26 VRB3      30.03R
RYAN FIELD     SUNNY     63  27  25 W5        30.04R
NOGALES        SUNNY     58  24  27 VRB3      30.04R
SIERRA VISTA   SUNNY     57  22  26 W8        30.06R
DOUGLAS        SUNNY     59  25  27 NW14      30.04R
SAFFORD        SUNNY     61  29  29 NW20G26   29.98S
$$

AZZ020-021-025-026-031-291700-
SOUTHWEST ARIZONA

CITY           SKY/WX    TMP DP  RH WIND       PRES   REMARKS
YUMA           MOSUNNY   74  25  16 N12       30.03R
$$

CAZ031-033-041-043-047-048-061-291700-
SOUTHERN CALIFORNIA

CITY           SKY/WX    TMP DP  RH WIND       PRES   REMARKS
DOWNTOWN L.A.  SUNNY     66  42  41 CALM      30.04R
L.A. AIRPORT   MOSUNNY   64  54  69 CALM      30.04S
SAN DIEGO      MOSUNNY   66  39  37 CALM      30.06R
BURBANK        SUNNY     64  33  31 CALM      30.04R
ONTARIO        MOSUNNY   70  29  21 VRB3      30.06R
RIVERSIDE      MOSUNNY   67  34  29 W5        30.06R
PALM SPRINGS   SUNNY     78  26  14 NE10      30.06R
EL CENTRO NAS  MOSUNNY   68  27  21 CALM      30.07R
IMPERIAL         N/A     62  38  40 MISG      30.05R
BLYTHE         SUNNY     72  27  18 N18       30.06R
NEEDLES        SUNNY     70  26  19 N18       30.10R
$$

NVZ020-UTZ003-291700-
SOUTHERN NEVADA-UTAH

CITY           SKY/WX    TMP DP  RH WIND       PRES   REMARKS
LAS VEGAS      MOSUNNY   61  25  25 CALM      30.17R
SALT LAKE CITY MOSUNNY   44  31  60 SE6       30.26R
$$

NMZ009-TXZ055-291700-
NEW MEXICO-WEST TEXAS

CITY           SKY/WX    TMP DP  RH WIND       PRES   REMARKS
ALBUQUERQUE    CLOUDY    48  37  65 NW14      30.01R
EL PASO        CLOUDY    54  35  48 N7        29.96R
$$


........................KEY........................
SKY/WX - SKY CONDITION/WEATHER
TMP    - TEMPERATURE IN FAHRENHEIT
DP     - DEW POINT IN FAHRENHEIT
RH     - RELATIVE HUMIDITY IN PERCENT
WIND   - DIRECTION AND SPEED IN MILES PER HOUR (MPH)
VRB    - VARIABLE WIND DIRECTION
PRES   - MEAN SEA LEVEL PRESSURE IN INCHES OF MERCURY
         F - FALLING PRESSURE   R - RISING PRESSURE
         S - STEADY PRESSURE
VSB    - VISIBILITY IN MILES
HX     - HEAT INDEX IN FAHRENHEIT
WCI    - WIND CHILL INDEX IN FAHRENHEIT
TC     - TEMPERATURE IN CELSIUS WHICH IS ALSO KNOWN AS
         TEMPERATURE IN CENTIGRADE
AFB    - AIR FORCE BASE
         LUKE AFB IS LUKE AIR FORCE BASE
         DAVIS-MONTHAN IS DAVIS-MONTHAN AIR FORCE BASE
NAS    - NAVAL AIR STATION
         EL CENTRO NAS IS EL CENTRO NAVAL AIR STATION
N/A    - NOT AVAILABLE





USA.gov is the U.S. government's official web portal to all federal, state and local government web resources and services.